sat.trackr.live / text

‹ back to catalog

STARLINK-32804

NORAD 62846 · 2025-019T

PAYLOAD ACTIVE UNKNOWN

§ Identity

Operator
Country
US
Launch date
2025-01-27
Launch site
AFETR
Launch vehicle
Mass (kg)
RCS (m²)

Purposes: comms

External: N2YO · Heavens-Above · Gunter

§ Orbital elements

Epoch: 2026-05-25T00:23:06.609408Z

Period
94.27 min
Inclination
43.0027°
Eccentricity
0.0001568
Mean motion
15.27599342 rev/d
Perigee alt
481.9 km
Apogee alt
484.1 km
Semi-major
6,861.1 km
B*
8.5998e-4
RAAN
17.9690°
Arg perigee
264.4221°
Mean anomaly
95.6452°
Rev number
7,392

§ Raw data

STARLINK-328041 62846U 25019T   26145.01604872  .00023492  00000+0  85998-3 0  99902 62846  43.0027  17.9690 0001568 264.4221  95.6452 15.27599342 73926

JSON: /api/v1/satellites/62846 · /tle

For live sub-satellite position, see the globe view (requires WebGL).

§ Visibility from observer

Set your observer location to see the next 7 days of passes ≥ 10°. The values pass through the URL so the page stays shareable.

No JS? Fill the form by hand. The geolocation button needs JavaScript.